Home   Weather   Inverness   Past weeks

Flag for USA Past Weather in Inverness, Florida, USA — Yesterday and Last 2 Weeks

Now
57 °F

Fog.


Feels Like: 57 °F
Forecast: 59 / 80 °F
Wind: No wind

Location: The Villages

Current Time: Jan 19, 2017 at 8:22:46 am

Latest Report: Jan 19, 2017 at 7:55 am


Visibility: 0 mi

Pressure: 29.98 "Hg

Humidity: 100%

Dew Point: 57 °F

Location of InvernessLocation

Past Weather in Inverness — Graph

°F

Inverness Temperature Yesterday

Maximum temperature yesterday: 81 °F (at 1:15 pm)
Minimum temperature yesterday: 55 °F (at 5:55 am)
Average temperature yesterday: 67 °F

High & Low Weather Summary for the Past Weeks

 TemperatureHumidityPressure
High81 °F (Jan 6, 2:15 pm)100% (Jan 4, 6:15 am)30.54 "Hg (Jan 4, 6:15 am)
Low32 °F (Jan 8, 5:15 am)51% (Jan 6, 4:15 pm)29.73 "Hg (Jan 4, 2:55 pm)
Average62 °F88%30.16 "Hg
* Reported Jan 4 6:15 am — Jan 19 6:55 am, Inverness, Weather by CustomWeather, © 2017

Note: Actual official high and low records may vary slightly from our data, if they occured in-between our weather recording intervals... More about our weather records

Advertising

Inverness Weather History for the Previous 24 Hours

Scroll right to see more
 ConditionsComfort  
Time TempWeatherWind HumidityBarometerVisibility
6:55 am
Thu, Jan 19
57 °FFog.No wind100%29.98 "Hg0 mi
6:15 am57 °FFog.No wind100%29.97 "Hg0 mi
5:55 am59 °FFog.No wind100%29.96 "Hg0 mi
5:15 am59 °FFog.No wind100%29.96 "Hg0 mi
4:55 am59 °FFog.No wind100%29.96 "Hg0 mi
4:15 am59 °FFog.No wind100%29.97 "Hg1 mi
3:55 am61 °FCool.No wind100%29.97 "Hg10 mi
3:15 am59 °FCool.No wind100%29.98 "Hg10 mi
2:55 am61 °FFog.No wind100%29.98 "Hg6 mi
2:15 am61 °FCool.No wind100%29.99 "Hg10 mi
1:55 am61 °FCool.No wind100%29.99 "Hg10 mi
1:15 am61 °FCool.No wind100%30.00 "Hg10 mi
12:55 am61 °FCool.No wind100%30.00 "Hg10 mi
12:15 am61 °FCool.No wind100%30.00 "Hg10 mi
11:55 pm
Wed, Jan 18
61 °FCool.No wind100%30.00 "HgN/A
11:15 pm61 °FCool.No wind100%30.01 "Hg10 mi
10:55 pm63 °FMild.No wind100%30.02 "Hg10 mi
10:15 pm64 °FMild.No wind100%30.03 "Hg10 mi
9:55 pm64 °FMild.No wind100%30.04 "Hg10 mi
9:15 pm66 °FMild.No wind94%30.04 "Hg10 mi
8:55 pm64 °FMild.No wind100%30.03 "Hg10 mi
8:15 pm66 °FMild.No wind94%30.04 "Hg10 mi
7:55 pm68 °FMild.No wind94%30.04 "Hg10 mi
7:15 pm70 °FMild.No wind88%30.04 "Hg10 mi
6:55 pm70 °FMild.No wind88%30.03 "Hg10 mi
6:15 pm72 °FMild.No wind83%30.02 "Hg10 mi
5:55 pm73 °FMild.N/A83%30.03 "Hg10 mi
5:15 pm77 °FWarm.N/A74%30.03 "Hg10 mi
4:55 pm77 °FWarm.8 mph74%30.02 "Hg10 mi
4:15 pm79 °FWarm.9 mph74%30.01 "Hg10 mi
3:55 pm81 °FWarm.N/A70%30.01 "Hg10 mi
3:15 pm81 °FWarm.9 mph74%30.01 "Hg10 mi
2:55 pm79 °FWarm.8 mph79%30.01 "Hg10 mi
2:15 pm81 °FWarm.7 mph74%30.02 "Hg10 mi
1:55 pm79 °FWarm.8 mph79%30.03 "Hg10 mi
1:15 pm81 °FWarm.5 mph79%30.05 "Hg10 mi
12:55 pm79 °FWarm.6 mph79%30.05 "Hg10 mi
12:15 pm79 °FWarm.8 mph84%30.08 "Hg10 mi
11:55 am77 °FWarm.7 mph89%30.09 "Hg10 mi
11:15 am75 °FMild.N/A94%30.12 "Hg10 mi
10:55 am73 °FMild.No wind94%30.12 "Hg10 mi
10:15 am72 °FMild.No wind100%30.13 "Hg10 mi
9:55 am70 °FMild.No wind100%30.12 "Hg10 mi
9:15 am64 °FMild.No wind100%30.12 "Hg10 mi
8:55 am63 °FMild.No wind100%30.12 "Hg10 mi
8:15 am57 °FFog.No wind100%30.10 "Hg1 mi
Weather by CustomWeather, © 2017

See weather overviewHow to use our weather pages